Regional Weather Roundup
Issued by NWS

Home | Current Version | Previous Version | Graphics & Text | Print | Product List | Glossary On
Versions: 1 2 3 4 5 6 7 8 9 10 11 12 13 14 15 16 17 18 19 20 21 22 23 24 25 26 27 28 29 30 31 32 33 34 35 36 37 38 39 40 41 42 43 44 45 46 47 48 49 50
000
ASUS43 KMPX 111810
RWRMN
WEATHER ROUNDUP FOR MINNESOTA
NATIONAL WEATHER SERVICE TWIN CITIES/CHANHASSEN MN
1200 PM CST MON DEC 11 2017


NOTE: "FAIR" INDICATES FEW OR NO CLOUDS BELOW 12,000 FEET WITH NO
SIGNIFICANT WEATHER AND/OR OBSTRUCTIONS TO VISIBILITY. N/A MEANS
CURRENT SKY AND/OR WEATHER CONDITIONS ARE NOT AVAILABLE.

MNZ060>063-068>070-111900-
   Twin Cities Metro

CITY           SKY/WX    TMP DP  RH WIND       PRES   REMARKS
TWIN CITIES    CLOUDY    35  31  85 N16G24    29.80R WCI  25
6HR MIN TEMP:  29; 6HR MAX TEMP:  35; 6HR PCP:  0.10;

ST PAUL        CLOUDY    34  30  85 NW16      29.81R WCI  24
CRYSTAL        CLOUDY    35  28  75 NW18G24   29.80R WCI  24
BLAINE         CLOUDY    36  32  87 NW18G25   29.80R
LAKEVILLE      CLOUDY    34  30  86 NW9G21    29.79R WCI  26
EDEN PRAIRIE   CLOUDY    36  30  79 N17G25    29.79R
6HR MIN TEMP:  30; 6HR MAX TEMP:  36; 6HR PCP:  0.04;

SOUTH ST PAUL  CLOUDY    34  31  86 N16       29.79R WCI  24
LAKE ELMO      CLOUDY    34  30  86 NW14G21   29.79R WCI  24
$$
MNZ001>005-007-008-013>017-022>024-027-028-111900-
   Northwest Minnesota

CITY           SKY/WX    TMP DP  RH WIND       PRES   REMARKS
BEMIDJI        CLOUDY    21  16  80 N23       29.99R WCI   5
HALLOCK        PTSUNNY   16   9  73 N24G30    30.20R HAZE    WCI  -3
ROSEAU         FLURRIES  19  12  73 N24       30.10R WCI   2
WARROAD        LGT SNOW  19  12  73 NW13G21   30.09R WCI   7
THIEF RVR FALL LGT SNOW  18  12  77 N26G35    30.10R WCI  -1
CROOKSTON      CLOUDY    18  12  79 N31G38    30.15R WCI  -2
FOSSTON        LGT SNOW  19  16  86 N20G28    30.06R WCI   4
DETROIT LAKES  CLOUDY    25  19  80 N24G33    30.04R WCI   9
MOORHEAD       DRIZZLE   23  19  86 N25G31    30.13R WCI   7
PARK RAPIDS    CLOUDY    24  19  81 N25G37    29.95R WCI   8
MAHNOMEN       LGT SNOW  21  17  84 N25G32    30.05R WCI   4
$$
MNZ006-009>011-018-025>026-111900-
   North Central Minnesota

CITY           SKY/WX    TMP DP  RH WIND       PRES   REMARKS
BAUDETTE       FLURRIES  19  12  74 N21G33    30.02R WCI   3
FLAG ISLAND    FLURRIES  16   9  73 N20       30.07R WCI  -1
INTL FALLS     CLOUDY    19  10  68 N15G28    29.96R WCI   5
6HR MIN TEMP:  19; 6HR MAX TEMP:  21; 6HR PCP:  0.01;

WASKISH        FLURRIES  21  14  73 N12G26    30.01R WCI   9
LONGVILLE      CLOUDY    25  21  86 N9G22     29.93R WCI  15
GRAND RAPIDS   CLOUDY    22  20  92 N22G31    29.91R WCI   6
CRANE LAKE     FLURRIES  18  14  86 NW12      29.92  WCI   5
ORR            FLURRIES  19  12  73 NW10G24   29.87R WCI   8
COOK           FLURRIES  19  16  86 NW8G21    29.89R WCI   9
WALKER         CLOUDY    23  18  83 N13G23    29.96R WCI  11
$$
MNZ012-019>021-037-111900-
   Northeast Minnesota

CITY           SKY/WX    TMP DP  RH WIND       PRES   REMARKS
DULUTH         FLURRIES  25  22  88 N10       29.78R WCI  15
6HR MIN TEMP:  20; 6HR MAX TEMP:  25; 6HR PCP:  0.02;

ELY            FLURRIES  19  16  86 NW15G24   29.83R WCI   5
HIBBING        CLOUDY    20  17  88 N22G30    29.86R WCI   3
DULUTH HARBOR  CLOUDY    30  27  86 NW17G24   29.83R WCI  18
TWO HARBORS    CLOUDY    28  23  80 NW7G20    29.77R WCI  21
G MARAIS ARPRT FLURRIES  19  12  73 NW12G21   29.69R WCI   7
$$
MNZ029>031-032-039>041-046>048-054>057-064-111900-
   West Central Minnesota

CITY           SKY/WX    TMP DP  RH WIND       PRES   REMARKS
FERGUS FALLS   CLOUDY    25  21  86 N25G41    30.06R WCI   9
WHEATON        CLOUDY    27  21  80 NW29G36   30.09  WCI  11
MORRIS         CLOUDY    28  23  80 N29G39    30.00R WCI  13
ALEXANDRIA     CLOUDY    29  25  85 N23G32    29.94R WCI  15
ELBOW LAKE     CLOUDY    25  23  91 NW29G37   30.01R FOG     WCI   8
WADENA         CLOUDY    27  21  80 N24G33    29.95R WCI  12
GLENWOOD       MOSUNNY   30  27  86 NW22G30   29.94R WCI  17
APPLETON       CLOUDY    30  25  80 N31G40    30.00  WCI  15
BENSON         CLOUDY    30  27  86 N30G37    29.98R WCI  15
ORTONVILLE     CLOUDY    28  23  80 N30G37    30.04R WCI  13
MADISON        CLOUDY    34  28  80 NW33G41   30.02R WCI  19
WILLMAR        CLOUDY    36  30  80 NW22G29   29.92R
$$
MNZ033>034-036-042>043-049>051-058-059-111900-
   Central Minnesota

CITY           SKY/WX    TMP DP  RH WIND       PRES   REMARKS
ST CLOUD       CLOUDY    34  29  82 N20G26    29.84R WCI  23
6HR MIN TEMP:  29; 6HR MAX TEMP:  35; 6HR PCP: TRACE;

SAUK CENTRE    CLOUDY    32  27  82 N21G29    29.91R WCI  20
PAYNESVILLE    CLOUDY    35  31  85 N20G26    29.88R WCI  24
AITKIN         CLOUDY    27  21  80 NW15G22   29.86R WCI  15
PINE RIVER     CLOUDY    25  19  80 N14G20    29.95R WCI  13
BRAINERD       CLOUDY    28  23  81 N23G31    29.90R WCI  14
STAPLES        CLOUDY    27  23  86 N20G26    29.93R WCI  13
LONG PRAIRIE   CLOUDY    32  27  80 NW18G30   29.90R WCI  20
LITTLE FALLS   CLOUDY    32  23  69 N8G16     29.89R WCI  25
LITCHFIELD     CLOUDY    37  34  87 NW21G29   29.86R
BUFFALO        CLOUDY    36  30  80 NW15G25   29.84R
MAPLE LAKE     CLOUDY    37  32  84 NW18G25   29.85R
HUTCHINSON     CLOUDY    37  33  84 NW21      29.85R
$$
MNZ037-044-045-052-053-111900-
   East Central Minnesota

CITY           SKY/WX    TMP DP  RH WIND       PRES   REMARKS
PRINCETON      CLOUDY    36  28  75 NW15G26   29.84R
MORA           CLOUDY    32  27  80 N13G28    29.84R WCI  22
CAMBRIDGE      CLOUDY    34  27  75 NW12G23   29.83R WCI  25
RUSH CITY      CLOUDY    32  26  79 N20G26    29.82R WCI  20
MOOSE LAKE     CLOUDY    30  25  80 N12G17    29.81R WCI  21
HINCKLEY       CLOUDY    32  27  80 N14G24    29.82R WCI  22
CLOQUET        CLOUDY    27  21  80 NW15G22   29.80R WCI  15
MCGREGOR       CLOUDY    28  25  86 N23G30    29.85R WCI  14
$$
MNZ071>073-080-081-089-090-097-098-111900-
   Southwest Minnesota

CITY           SKY/WX    TMP DP  RH WIND       PRES   REMARKS
MONTEVIDEO     CLOUDY    30  27  86 N30G40    29.97R WCI  15
GRANITE FALLS  CLOUDY    33  29  86 NW22G38   29.97R WCI  21
CANBY          CLOUDY    32  28  85 NW30G38   30.02R WCI  18
MARSHALL       CLOUDY    31  28  89 N32G44    29.94R WCI  16
REDWOOD FALLS  CLOUDY    35  29  78 NW16G37   29.89R WCI  25
OLIVIA         CLOUDY    34  32  93 NW20G29   29.89R WCI  22
PIPESTONE      CLOUDY    34  28  80 N21G37    29.95R WCI  22
WINDOM           N/A     36  23  60 NW26G38   29.87R
WORTHINGTON    CLOUDY    35  32  88 NW24G38   29.91R WCI  23
JACKSON        CLOUDY    34  32  93 MISG      29.86R
TRACY          CLOUDY    33  31  90 N32G39    29.93R WCI  19
SLAYTON        CLOUDY    33  31  91 NW31G43   29.92  WCI  19
$$
MNZ065>067-074>077-082>085-091>093-111900-
   South Central Minnesota

CITY           SKY/WX    TMP DP  RH WIND       PRES   REMARKS
MANKATO        CLOUDY    35  32  88 NW13      29.83R WCI  26
NEW ULM        CLOUDY    36  30  80 NW22G28   29.85R
ST JAMES       CLOUDY    36  34  93 NW23G31   29.86R
FAIRMONT       MIX PCPN  36  33  89 NW29G37   29.84R
GLENCOE        CLOUDY    38  33  84 NW17G23   29.82R
FARIBAULT      CLOUDY    36  30  80 NW10G17   29.79R
OWATONNA       LGT SNOW  34  30  86 NW13      29.78  WCI  25
WASECA         LGT RAIN  34  32  93 NW15      29.81R WCI  24
$$
MNZ078>079-086>088-094>096-111900-
   Southeast Minnesota

CITY           SKY/WX    TMP DP  RH WIND       PRES   REMARKS
ROCHESTER      LGT SNOW  33  32  96 NW13      29.73R FOG     WCI  24
6HR MIN TEMP:  28; 6HR MAX TEMP:  33; 6HR PCP:  0.17;

RED WING       CLOUDY    34  28  80 W5        29.76R FOG     WCI  30
STANTON        CLOUDY    35  32  88 NW8       29.77R WCI  28
DODGE CENTER   LGT SNOW  34  30  86 NW15G24   29.75R WCI  24
WINONA           N/A     30  28  93 CALM      29.76S
PRESTON        CLOUDY    32  31  96 NW10      29.73R FOG     WCI  24
$$
ABBREVIATIONS USED IN REMARKS
   TC - TEMPERATURES IN CELSIUS
  WCI - WIND CHILL INDEX
   HX - HEAT INDEX
  VSB - VISIBILITY
$$



USA.gov is the U.S. government's official web portal to all federal, state and local government web resources and services.